,,Stat6,,Stat2,,Stat8,,Stat9,,Stat10,,Wind1,,Wind1,
time,status,PA1M_AVG,status,PR1M_SUM,status,RH1M_AVG,status,SR1M_AVG,status,TA1M_AVG,status,W1dAve1m,status,W1sAve1m,
2005-05-25, 00:00:00,VALID,919.345,VALID,0,VALID,100,VALID,0,VALID,19.5174,VALID,10,VALID,1.66406,
2005-05-25, 00:01:00,VALID,919.346,VALID,0,VALID,100,VALID,0.0169808,VALID,19.5075,VALID,340,VALID,0.723558,
2005-05-25, 00:02:00,VALID,919.34,VALID,0,VALID,100,VALID,0.0169808,VALID,19.5072,VALID,342,VALID,0.857088,
2005-05-25, 00:03:00,VALID,919.343,VALID,0,VALID,100,VALID,0,VALID,19.4846,VALID,321,VALID,0.749455,
2005-05-25, 00:04:00,VALID,919.35,VALID,0,VALID,100,VALID,0,VALID,19.4658,VALID,334,VALID,0.81612,
2005-05-25, 00:05:00,VALID,919.337,VALID,0,VALID,100,VALID,0.0169808,VALID,19.4683,VALID,355,VALID,0.939787,
2005-05-25, 00:06:00,VALID,919.349,VALID,0,VALID,100,VALID,0,VALID,19.472,VALID,23,VALID,0.950457,
2005-05-25, 00:07:00,VALID,919.335,VALID,0,VALID,100,VALID,0,VALID,19.4789,VALID,5,VALID,1.35653,
2005-05-25, 00:08:00,VALID,919.337,VALID,0,VALID,100,VALID,0,VALID,19.4201,VALID,343,VALID,1.17206,
2005-05-25, 00:09:00,VALID,919.331,VALID,0,VALID,100,VALID,0,VALID,19.3977,VALID,350,VALID,1.25953,
2005-05-25, 00:10:00,VALID,919.311,VALID,0,VALID,100,VALID,0,VALID,19.4079,VALID,4,VALID,1.14941,
2005-05-25, 00:11:00,VALID,919.285,VALID,0,VALID,100,VALID,-0.0169808,VALID,19.4139,VALID,5,VALID,1.07106,
2005-05-25, 00:12:00,VALID,919.277,VALID,0,VALID,100,VALID,0,VALID,19.4427,VALID,17,VALID,1.51261,
2005-05-25, 00:13:00,VALID,919.25,VALID,0,VALID,100,VALID,0,VALID,19.4593,VALID,16,VALID,1.89735,
2005-05-25, 00:14:00,VALID,919.251,VALID,0,VALID,100,VALID,-0.0169808,VALID,19.4591,VALID,20,VALID,1.56831,
2005-05-25, 00:15:00,VALID,919.248,VALID,0,VALID,100,VALID,-0.0509425,VALID,19.4787,VALID,14,VALID,1.55905,
2005-05-25, 00:16:00,VALID,919.26,VALID,0,VALID,100,VALID,0,VALID,19.4787,VALID,6,VALID,1.13077,
2005-05-25, 00:17:00,VALID,919.237,VALID,0,VALID,100,VALID,0,VALID,19.4884,VALID,20,VALID,1.85175,
2005-05-25, 00:18:00,VALID,919.249,VALID,0,VALID,100,VALID,0,VALID,19.4849,VALID,18,VALID,1.78303,
2005-05-25, 00:19:00,VALID,919.245,VALID,0,VALID,100,VALID,-0.0169808,VALID,19.5015,VALID,26,VALID,1.57719,
2005-05-25, 00:20:00,VALID,919.241,VALID,0.2,VALID,100,VALID,-0.0169808,VALID,19.5015,VALID,14,VALID,1.33647,
2005-05-25, 00:21:00,VALID,919.254,VALID,0,VALID,100,VALID,-0.0169808,VALID,19.4787,VALID,6,VALID,0.767833,
2005-05-25, 00:22:00,VALID,919.236,VALID,0,VALID,100,VALID,0,VALID,19.4849,VALID,11,VALID,1.13663,
2005-05-25, 00:23:00,VALID,919.233,VALID,0,VALID,100,VALID,0,VALID,19.4822,VALID,10,VALID,1.20437,
2005-05-25, 00:24:00,VALID,919.219,VALID,0,VALID,100,VALID,0,VALID,19.4526,VALID,19,VALID,1.18192,
2005-05-25, 00:25:00,VALID,919.212,VALID,0,VALID,100,VALID,0,VALID,19.4335,VALID,360,VALID,1.06374,
2005-05-25, 00:26:00,VALID,919.191,VALID,0,VALID,100,VALID,0,VALID,19.427,VALID,358,VALID,0.829397,
2005-05-25, 00:27:00,VALID,919.188,VALID,0,VALID,100,VALID,-0.0339617,VALID,19.4268,VALID,11,VALID,1.13228,
2005-05-25, 00:28:00,VALID,919.17,VALID,0,VALID,100,VALID,-0.0339617,VALID,19.4303,VALID,360,VALID,1.11719,
2005-05-25, 00:29:00,VALID,919.149,VALID,0,VALID,100,VALID,-0.0169808,VALID,19.4231,VALID,18,VALID,1.42328,
2005-05-25, 00:30:00,VALID,919.122,VALID,0,VALID,100,VALID,0,VALID,19.4429,VALID,21,VALID,1.71384,
2005-05-25, 00:31:00,VALID,919.092,VALID,0,VALID,100,VALID,0,VALID,19.4561,VALID,25,VALID,1.77639,
2005-05-25, 00:32:00,VALID,919.087,VALID,0,VALID,100,VALID,0,VALID,19.4688,VALID,28,VALID,2.00545,
2005-05-25, 00:33:00,VALID,919.069,VALID,0,VALID,100,VALID,-0.0169808,VALID,19.4658,VALID,24,VALID,1.77166,
2005-05-25, 00:34:00,VALID,919.067,VALID,0,VALID,100,VALID,0,VALID,19.4524,VALID,26,VALID,1.8109,
2005-05-25, 00:35:00,VALID,919.05,VALID,0,VALID,100,VALID,0,VALID,19.4494,VALID,17,VALID,1.50491,
2005-05-25, 00:36:00,VALID,919.03,VALID,0,VALID,100,VALID,0.0169808,VALID,19.4533,VALID,11,VALID,0.944754,
2005-05-25, 00:37:00,VALID,919.004,VALID,0,VALID,100,VALID,-0.101885,VALID,19.4543,VALID,21,VALID,0.741642,
2005-05-25, 00:38:00,VALID,919.008,VALID,0,VALID,100,VALID,-0.101885,VALID,19.4571,VALID,359,VALID,0.55293,
2005-05-25, 00:39:00,VALID,918.986,VALID,0,VALID,100,VALID,-0.101885,VALID,19.4667,VALID,14,VALID,0.577195,
2005-05-25, 00:40:00,VALID,918.966,VALID,0,VALID,100,VALID,-0.101885,VALID,19.4576,VALID,350,VALID,0.311498,
2005-05-25, 00:41:00,VALID,918.937,VALID,0,VALID,100,VALID,-0.101885,VALID,19.4439,VALID,15,VALID,0.342014,
2005-05-25, 00:42:00,VALID,918.906,VALID,0,VALID,100,VALID,-0.101885,VALID,19.4315,VALID,22,VALID,0.320884,
2005-05-25, 00:43:00,VALID,918.884,VALID,0,VALID,100,VALID,-0.101885,VALID,19.4121,VALID,16,VALID,0,
2005-05-25, 00:44:00,VALID,918.841,VALID,0,VALID,100,VALID,-0.101885,VALID,19.4186,VALID,16,VALID,0.135547,
2005-05-25, 00:45:00,VALID,918.831,VALID,0,VALID,100,VALID,-0.0849042,VALID,19.4116,VALID,16,VALID,0.125,
2005-05-25, 00:46:00,VALID,918.792,VALID,0,VALID,100,VALID,-0.101885,VALID,19.4024,VALID,20,VALID,0.399346,
2005-05-25, 00:47:00,VALID,918.767,VALID,0,VALID,100,VALID,-0.101885,VALID,19.4121,VALID,16,VALID,0.69093,
2005-05-25, 00:48:00,VALID,918.764,VALID,0,VALID,100,VALID,-0.0849042,VALID,19.4153,VALID,26,VALID,1.06632,
2005-05-25, 00:49:00,VALID,918.752,VALID,0,VALID,100,VALID,-0.101885,VALID,19.428,VALID,31,VALID,0.792683,
2005-05-25, 00:50:00,VALID,918.729,VALID,0,VALID,100,VALID,-0.118866,VALID,19.4116,VALID,352,VALID,0.522166,
2005-05-25, 00:51:01,VALID,918.714,VALID,0,VALID,100,VALID,-0.118866,VALID,19.4027,VALID,20,VALID,1.03926,
2005-05-25, 00:52:00,VALID,918.701,VALID,0,VALID,100,VALID,0,VALID,19.3878,VALID,27,VALID,1.01674,
2005-05-25, 00:53:00,VALID,918.671,VALID,0,VALID,100,VALID,0,VALID,19.385,VALID,29,VALID,0.689918,
2005-05-25, 00:54:01,VALID,918.651,VALID,0,VALID,100,VALID,-0.0339617,VALID,19.3952,VALID,22,VALID,1.04742,
2005-05-25, 00:55:01,VALID,918.639,VALID,0,VALID,100,VALID,-0.0679233,VALID,19.3788,VALID,7,VALID,0.671289,
2005-05-25, 00:56:01,VALID,918.62,VALID,0,VALID,100,VALID,-0.0169808,VALID,19.3818,VALID,7,VALID,0.238991,
2005-05-25, 00:57:00,VALID,918.615,VALID,0,VALID,100,VALID,0,VALID,19.3888,VALID,8,VALID,0.384448,
2005-05-25, 00:58:00,VALID,918.583,VALID,0,VALID,100,VALID,-0.0169808,VALID,19.3595,VALID,14,VALID,1.02166,
2005-05-25, 00:59:00,VALID,918.551,VALID,0,VALID,100,VALID,0,VALID,19.2976,VALID,326,VALID,0.695694,
2005-05-25, 01:00:01,VALID,918.518,VALID,0,VALID,100,VALID,-0.0339617,VALID,19.285,VALID,339,VALID,0.147917,
2005-05-25, 01:01:00,VALID,918.501,VALID,0,VALID,100,VALID,0,VALID,19.2815,VALID,339,VALID,0.031436,
2005-05-25, 01:02:00,VALID,918.477,VALID,0,VALID,100,VALID,-0.0169808,VALID,19.2852,VALID,339,VALID,0.157552,
2005-05-25, 01:03:00,VALID,918.461,VALID,0,VALID,100,VALID,-0.0169808,VALID,19.2919,VALID,9,VALID,0.481399,
2005-05-25, 01:04:01,VALID,918.441,VALID,0,VALID,100,VALID,-0.0339617,VALID,19.3041,VALID,17,VALID,0.546007,
2005-05-25, 01:05:00,VALID,918.442,VALID,0,VALID,100,VALID,0,VALID,19.3239,VALID,9,VALID,0.940739,
2005-05-25, 01:06:01,VALID,918.444,VALID,0,VALID,100,VALID,0,VALID,19.3078,VALID,9,VALID,0.797619,
2005-05-25, 01:07:00,VALID,918.455,VALID,0,VALID,100,VALID,0.0169808,VALID,19.2815,VALID,10,VALID,1.00888,
2005-05-25, 01:08:00,VALID,918.435,VALID,0,VALID,100,VALID,0.0169808,VALID,19.2713,VALID,24,VALID,1.22775,
2005-05-25, 01:09:00,VALID,918.419,VALID,0,VALID,100,VALID,0.0169808,VALID,19.2817,VALID,23,VALID,1.7847,
2005-05-25, 01:10:00,VALID,918.407,VALID,0,VALID,100,VALID,0,VALID,19.2748,VALID,31,VALID,1.47154,
2005-05-25, 01:11:00,VALID,918.398,VALID,0,VALID,100,VALID,0.0169808,VALID,19.2909,VALID,22,VALID,1.34358,
2005-05-25, 01:12:00,VALID,918.387,VALID,0,VALID,100,VALID,0.0169808,VALID,19.3006,VALID,23,VALID,1.10733,
2005-05-25, 01:13:01,VALID,918.369,VALID,0,VALID,100,VALID,0.0169808,VALID,19.311,VALID,32,VALID,0.859933,
2005-05-25, 01:14:00,VALID,918.368,VALID,0,VALID,100,VALID,0,VALID,19.3043,VALID,23,VALID,1.07852,
2005-05-25, 01:15:01,VALID,918.371,VALID,0,VALID,100,VALID,0.0339617,VALID,19.3043,VALID,32,VALID,0.882267,
2005-05-25, 01:16:01,VALID,918.364,VALID,0,VALID,100,VALID,0,VALID,19.3009,VALID,15,VALID,0.736506,
2005-05-25, 01:17:00,VALID,918.366,VALID,0,VALID,100,VALID,0,VALID,19.272,VALID,20,VALID,0.928993,
2005-05-25, 01:18:00,VALID,918.354,VALID,0,VALID,100,VALID,0,VALID,19.2852,VALID,17,VALID,1.23207,
2005-05-25, 01:19:00,VALID,918.336,VALID,0,VALID,100,VALID,0,VALID,19.2624,VALID,8,VALID,1.48473,
2005-05-25, 01:20:01,VALID,918.329,VALID,0,VALID,100,VALID,0,VALID,19.2172,VALID,25,VALID,1.35082,
2005-05-25, 01:21:00,VALID,918.328,VALID,0,VALID,100,VALID,0.0169808,VALID,19.1948,VALID,11,VALID,0.644727,
2005-05-25, 01:22:00,VALID,918.317,VALID,0,VALID,100,VALID,0,VALID,19.2045,VALID,5,VALID,0.699041,
2005-05-25, 01:23:01,VALID,918.314,VALID,0,VALID,100,VALID,0,VALID,19.1851,VALID,11,VALID,1.0309,
2005-05-25, 01:24:00,VALID,918.301,VALID,0,VALID,100,VALID,0,VALID,19.1816,VALID,14,VALID,0.99349,
2005-05-25, 01:25:01,VALID,918.304,VALID,0,VALID,100,VALID,0,VALID,19.172,VALID,12,VALID,0.63899,
2005-05-25, 01:26:01,VALID,918.272,VALID,0,VALID,100,VALID,0,VALID,19.1814,VALID,30,VALID,0.503806,
2005-05-25, 01:27:00,VALID,918.27,VALID,0,VALID,100,VALID,0,VALID,19.2075,VALID,15,VALID,0.87138,
2005-05-25, 01:28:01,VALID,918.253,VALID,0,VALID,100,VALID,0,VALID,19.1946,VALID,310,VALID,0.632813,
2005-05-25, 01:29:00,VALID,918.238,VALID,0,VALID,100,VALID,0,VALID,19.1784,VALID,351,VALID,0.806641,
2005-05-25, 01:30:01,VALID,918.219,VALID,0,VALID,100,VALID,0,VALID,19.1397,VALID,360,VALID,1.96076,
2005-05-25, 01:31:00,VALID,918.204,VALID,0,VALID,100,VALID,0.0169808,VALID,19.1238,VALID,8,VALID,1.00972,
2005-05-25, 01:32:00,VALID,918.187,VALID,0,VALID,100,VALID,0,VALID,19.133,VALID,24,VALID,0.869549,
2005-05-25, 01:33:00,VALID,918.188,VALID,0,VALID,100,VALID,-0.0169808,VALID,19.1399,VALID,21,VALID,1.24943,
2005-05-25, 01:34:01,VALID,918.183,VALID,0,VALID,100,VALID,-0.0169808,VALID,19.1491,VALID,303,VALID,0.686166,
2005-05-25, 01:35:00,VALID,918.16,VALID,0,VALID,100,VALID,-0.0169808,VALID,19.1491,VALID,20,VALID,0.819222,
2005-05-25, 01:36:01,VALID,918.145,VALID,0,VALID,100,VALID,-0.0169808,VALID,19.1588,VALID,11,VALID,0.293527,
2005-05-25, 01:37:01,VALID,918.13,VALID,0,VALID,100,VALID,0,VALID,19.169,VALID,11,VALID,0.183594,
2005-05-25, 01:38:00,VALID,918.085,VALID,0,VALID,100,VALID,0,VALID,19.1687,VALID,3,VALID,1.19055,
2005-05-25, 01:39:00,VALID,918.068,VALID,0,VALID,100,VALID,0.0169808,VALID,19.13,VALID,356,VALID,0.741477,
2005-05-25, 01:40:00,VALID,918.034,VALID,0,VALID,100,VALID,0,VALID,19.1332,VALID,17,VALID,0.962843,
2005-05-25, 01:41:01,VALID,918.012,VALID,0,VALID,100,VALID,0,VALID,19.1335,VALID,8,VALID,0.718164,
2005-05-25, 01:42:00,VALID,918.013,VALID,0,VALID,100,VALID,0.0169808,VALID,19.1429,VALID,4,VALID,0.380716,
2005-05-25, 01:43:00,VALID,917.997,VALID,0,VALID,100,VALID,0,VALID,19.1628,VALID,12,VALID,0.800409,
2005-05-25, 01:44:01,VALID,917.992,VALID,0,VALID,100,VALID,0,VALID,19.1687,VALID,21,VALID,0.943598,
2005-05-25, 01:45:01,VALID,917.968,VALID,0,VALID,100,VALID,-0.0169808,VALID,19.2017,VALID,27,VALID,1.45089,
2005-05-25, 01:46:00,VALID,917.962,VALID,0,VALID,100,VALID,0,VALID,19.2109,VALID,21,VALID,1.01905,
2005-05-25, 01:47:00,VALID,917.949,VALID,0,VALID,100,VALID,0,VALID,19.2271,VALID,20,VALID,0.744348,
2005-05-25, 01:48:01,VALID,917.946,VALID,0,VALID,100,VALID,0.0169808,VALID,19.2211,VALID,358,VALID,0.510099,
2005-05-25, 01:49:00,VALID,917.941,VALID,0,VALID,100,VALID,0,VALID,19.207,VALID,7,VALID,0.0795139,
2005-05-25, 01:50:00,VALID,917.939,VALID,0,VALID,100,VALID,0,VALID,19.2144,VALID,14,VALID,0.381963,
2005-05-25, 01:51:00,VALID,917.918,VALID,0,VALID,100,VALID,0,VALID,19.2075,VALID,25,VALID,0.544457,
2005-05-25, 01:52:01,VALID,917.913,VALID,0,VALID,100,VALID,0,VALID,19.2144,VALID,360,VALID,0.31686,
2005-05-25, 01:53:01,VALID,917.913,VALID,0,VALID,100,VALID,0.0169808,VALID,19.24,VALID,11,VALID,0.541788,
2005-05-25, 01:54:00,VALID,917.909,VALID,0,VALID,100,VALID,-0.0169808,VALID,19.2527,VALID,16,VALID,0.121003,
2005-05-25, 01:55:01,VALID,917.914,VALID,0,VALID,100,VALID,0,VALID,19.2596,VALID,16,VALID,0.632622,
2005-05-25, 01:56:00,VALID,917.902,VALID,0,VALID,100,VALID,0,VALID,19.2633,VALID,12,VALID,0.785742,
2005-05-25, 01:57:00,VALID,917.894,VALID,0,VALID,100,VALID,-0.0169808,VALID,19.2243,VALID,17,VALID,1.22994,
2005-05-25, 01:58:01,VALID,917.877,VALID,0,VALID,100,VALID,0,VALID,19.2042,VALID,9,VALID,0.810742,
2005-05-25, 01:59:00,VALID,917.872,VALID,0,VALID,100,VALID,0,VALID,19.2013,VALID,13,VALID,0.341146,
2005-05-25, 02:00:01,VALID,917.884,VALID,0,VALID,100,VALID,0,VALID,19.2045,VALID,10,VALID,0.536399,
2005-05-25, 02:01:00,VALID,917.879,VALID,0,VALID,100,VALID,0,VALID,19.2172,VALID,19,VALID,0.649554,
2005-05-25, 02:02:01,VALID,917.865,VALID,0,VALID,100,VALID,0,VALID,19.2335,VALID,29,VALID,0.746548,
2005-05-25, 02:03:00,VALID,917.868,VALID,0,VALID,100,VALID,0,VALID,19.2398,VALID,22,VALID,1.19893,
2005-05-25, 02:04:00,VALID,917.841,VALID,0,VALID,100,VALID,-0.0169808,VALID,19.2465,VALID,27,VALID,1.10861,
2005-05-25, 02:05:01,VALID,917.839,VALID,0,VALID,100,VALID,0,VALID,19.2465,VALID,5,VALID,1.33576,
2005-05-25, 02:06:01,VALID,917.836,VALID,0,VALID,100,VALID,-0.0169808,VALID,19.2363,VALID,21,VALID,0.729539,
2005-05-25, 02:07:01,VALID,917.839,VALID,0,VALID,100,VALID,-0.0679233,VALID,19.2511,VALID,357,VALID,0.921274,
2005-05-25, 02:08:00,VALID,917.822,VALID,0,VALID,100,VALID,-0.0679233,VALID,19.2154,VALID,21,VALID,1.10677,
2005-05-25, 02:09:00,VALID,917.816,VALID,0,VALID,100,VALID,-0.0849042,VALID,19.2154,VALID,330,VALID,0.493823,
2005-05-25, 02:10:00,VALID,917.803,VALID,0,VALID,100,VALID,-0.0849042,VALID,19.1858,VALID,2,VALID,1.95666,
2005-05-25, 02:11:01,VALID,917.804,VALID,0,VALID,100,VALID,-0.0509425,VALID,19.166,VALID,347,VALID,0.904688,
2005-05-25, 02:12:01,VALID,917.793,VALID,0,VALID,100,VALID,-0.0849042,VALID,19.1759,VALID,349,VALID,0.214026,
2005-05-25, 02:13:00,VALID,917.795,VALID,0,VALID,100,VALID,-0.0849042,VALID,19.1896,VALID,358,VALID,0.73383,
2005-05-25, 02:14:01,VALID,917.782,VALID,0,VALID,100,VALID,-0.0679233,VALID,19.1925,VALID,14,VALID,1.02628,
2005-05-25, 02:15:01,VALID,917.788,VALID,0,VALID,100,VALID,-0.0849042,VALID,19.2089,VALID,26,VALID,1.15573,
2005-05-25, 02:16:01,VALID,917.777,VALID,0,VALID,100,VALID,-0.0679233,VALID,19.238,VALID,31,VALID,1.29844,
2005-05-25, 02:17:00,VALID,917.79,VALID,0,VALID,100,VALID,-0.0509425,VALID,19.2149,VALID,360,VALID,2.07576,
2005-05-25, 02:18:00,VALID,917.782,VALID,0,VALID,100,VALID,-0.0339617,VALID,19.1928,VALID,357,VALID,1.57719,
2005-05-25, 02:19:00,VALID,917.754,VALID,0,VALID,100,VALID,-0.0679233,VALID,19.1796,VALID,20,VALID,2.20941,
2005-05-25, 02:20:01,VALID,917.775,VALID,0,VALID,100,VALID,0,VALID,19.1891,VALID,18,VALID,1.54043,
2005-05-25, 02:21:01,VALID,917.748,VALID,0,VALID,100,VALID,-0.0339617,VALID,19.1762,VALID,17,VALID,2.06285,
2005-05-25, 02:22:00,VALID,917.767,VALID,0,VALID,100,VALID,-0.0679233,VALID,19.169,VALID,26,VALID,0.587391,
2005-05-25, 02:23:01,VALID,917.772,VALID,0,VALID,100,VALID,-0.0339617,VALID,19.1891,VALID,359,VALID,0.66424,
2005-05-25, 02:24:00,VALID,917.768,VALID,0,VALID,100,VALID,-0.0849042,VALID,19.2089,VALID,356,VALID,0.467578,
2005-05-25, 02:25:01,VALID,917.755,VALID,0,VALID,100,VALID,-0.0509425,VALID,19.2184,VALID,2,VALID,0.473514,
2005-05-25, 02:26:00,VALID,917.722,VALID,0,VALID,100,VALID,-0.0339617,VALID,19.2149,VALID,25,VALID,0.985647,
2005-05-25, 02:27:00,VALID,917.726,VALID,0,VALID,100,VALID,-0.0509425,VALID,19.2089,VALID,19,VALID,1.37109,
2005-05-25, 02:28:01,VALID,917.717,VALID,0,VALID,100,VALID,-0.0509425,VALID,19.2117,VALID,17,VALID,1.242,
2005-05-25, 02:29:00,VALID,917.693,VALID,0,VALID,100,VALID,-0.0509425,VALID,19.2216,VALID,7,VALID,1.0799,
2005-05-25, 02:30:00,VALID,917.68,VALID,0,VALID,100,VALID,-0.0679233,VALID,19.2149,VALID,9,VALID,1.23256,
2005-05-25, 02:31:00,VALID,917.667,VALID,0,VALID,100,VALID,-0.0679233,VALID,19.2084,VALID,20,VALID,1.14288,
2005-05-25, 02:32:01,VALID,917.649,VALID,0,VALID,100,VALID,-0.0679233,VALID,19.2114,VALID,22,VALID,1.14082,
2005-05-25, 02:33:01,VALID,917.638,VALID,0,VALID,100,VALID,-0.0339617,VALID,19.2283,VALID,4,VALID,0.714648,
2005-05-25, 02:34:01,VALID,917.629,VALID,0,VALID,100,VALID,-0.0169808,VALID,19.2343,VALID,6,VALID,0.833807,
2005-05-25, 02:35:00,VALID,917.627,VALID,0,VALID,100,VALID,-0.0509425,VALID,19.2184,VALID,17,VALID,0.826601,
2005-05-25, 02:36:01,VALID,917.618,VALID,0,VALID,100,VALID,-0.0679233,VALID,19.2149,VALID,26,VALID,0.575838,
2005-05-25, 02:37:01,VALID,917.611,VALID,0,VALID,100,VALID,-0.0509425,VALID,19.2114,VALID,26,VALID,0.706214,
2005-05-25, 02:38:01,VALID,917.598,VALID,0,VALID,100,VALID,-0.0339617,VALID,19.2114,VALID,14,VALID,1.04325,
2005-05-25, 02:39:01,VALID,917.599,VALID,0,VALID,100,VALID,-0.0509425,VALID,19.2218,VALID,18,VALID,0.825781,
2005-05-25, 02:40:00,VALID,917.58,VALID,0,VALID,100,VALID,-0.0679233,VALID,19.2385,VALID,14,VALID,0.758539,
2005-05-25, 02:41:01,VALID,917.551,VALID,0,VALID,100,VALID,-0.0849042,VALID,19.2504,VALID,24,VALID,1.4381,
2005-05-25, 02:42:01,VALID,917.519,VALID,0,VALID,100,VALID,-0.0849042,VALID,19.2479,VALID,13,VALID,1.05015,
2005-05-25, 02:43:01,VALID,917.495,VALID,0,VALID,100,VALID,-0.0679233,VALID,19.2606,VALID,17,VALID,0.605097,
2005-05-25, 02:44:01,VALID,917.473,VALID,0,VALID,100,VALID,-0.0509425,VALID,19.2437,VALID,17,VALID,0.780134,
2005-05-25, 02:45:01,VALID,917.46,VALID,0,VALID,100,VALID,-0.0679233,VALID,19.2412,VALID,4,VALID,0.40439,
2005-05-25, 02:46:01,VALID,917.463,VALID,0,VALID,100,VALID,-0.0679233,VALID,19.2246,VALID,342,VALID,0.472834,
2005-05-25, 02:47:01,VALID,917.463,VALID,0,VALID,100,VALID,-0.0509425,VALID,19.2114,VALID,8,VALID,0.391578,
2005-05-25, 02:48:01,VALID,917.462,VALID,0,VALID,100,VALID,-0.0679233,VALID,19.2281,VALID,334,VALID,0.327487,
2005-05-25, 02:49:00,VALID,917.458,VALID,0,VALID,100,VALID,-0.0849042,VALID,19.2283,VALID,316,VALID,0.352834,
2005-05-25, 02:50:01,VALID,917.46,VALID,0,VALID,100,VALID,-0.0509425,VALID,19.2119,VALID,3,VALID,0.784884,
2005-05-25, 02:51:00,VALID,917.431,VALID,0,VALID,100,VALID,-0.0849042,VALID,19.2281,VALID,6,VALID,0.655705,
2005-05-25, 02:52:01,VALID,917.42,VALID,0,VALID,100,VALID,-0.0679233,VALID,19.2151,VALID,13,VALID,1.26753,
2005-05-25, 02:53:00,VALID,917.424,VALID,0,VALID,100,VALID,-0.0849042,VALID,19.2283,VALID,12,VALID,0.671875,
2005-05-25, 02:54:01,VALID,917.414,VALID,0,VALID,100,VALID,-0.0849042,VALID,19.2348,VALID,20,VALID,0.60774,
2005-05-25, 02:55:01,VALID,917.411,VALID,0,VALID,100,VALID,-0.0679233,VALID,19.2569,VALID,18,VALID,0.611923,
2005-05-25, 02:56:01,VALID,917.419,VALID,0,VALID,100,VALID,-0.0679233,VALID,19.2666,VALID,23,VALID,0.287791,
2005-05-25, 02:57:01,VALID,917.419,VALID,0,VALID,100,VALID,-0.0339617,VALID,19.2698,VALID,23,VALID,0.723292,
2005-05-25, 02:58:01,VALID,917.415,VALID,0,VALID,100,VALID,-0.0509425,VALID,19.273,VALID,17,VALID,0.393714,
2005-05-25, 02:59:01,VALID,917.393,VALID,0,VALID,100,VALID,-0.0339617,VALID,19.2733,VALID,20,VALID,1.01153,
2005-05-25, 03:00:01,VALID,917.415,VALID,0,VALID,100,VALID,-0.101885,VALID,19.28,VALID,25,VALID,1.01527,
2005-05-25, 03:01:01,VALID,917.412,VALID,0,VALID,100,VALID,-0.0679233,VALID,19.2966,VALID,22,VALID,1.15774,
2005-05-25, 03:02:01,VALID,917.389,VALID,0,VALID,100,VALID,-0.0849042,VALID,19.2896,VALID,27,VALID,1.12163,
2005-05-25, 03:03:01,VALID,917.379,VALID,0,VALID,100,VALID,-0.101885,VALID,19.2569,VALID,9,VALID,1.05964,
2005-05-25, 03:04:01,VALID,917.381,VALID,0,VALID,100,VALID,-0.0679233,VALID,19.2633,VALID,15,VALID,1.05183,
2005-05-25, 03:05:01,VALID,917.368,VALID,0,VALID,100,VALID,-0.0849042,VALID,19.2896,VALID,21,VALID,0.415153,
2005-05-25, 03:06:01,VALID,917.354,VALID,0,VALID,100,VALID,-0.0509425,VALID,19.3026,VALID,13,VALID,0.494913,
2005-05-25, 03:07:01,VALID,917.341,VALID,0,VALID,100,VALID,-0.0169808,VALID,19.3083,VALID,13,VALID,0.449405,
2005-05-25, 03:08:01,VALID,917.345,VALID,0,VALID,100,VALID,0,VALID,19.3011,VALID,13,VALID,0.132133,
2005-05-25, 03:09:01,VALID,917.348,VALID,0,VALID,100,VALID,0,VALID,19.2984,VALID,11,VALID,0.298118,
2005-05-25, 03:10:01,VALID,917.347,VALID,0,VALID,100,VALID,0,VALID,19.3046,VALID,10,VALID,0.277902,
2005-05-25, 03:11:01,VALID,917.356,VALID,0,VALID,100,VALID,0.0169808,VALID,19.3048,VALID,16,VALID,0.144709,
2005-05-25, 03:12:01,VALID,917.363,VALID,0,VALID,100,VALID,0,VALID,19.278,VALID,24,VALID,1.01719,
2005-05-25, 03:13:01,VALID,917.353,VALID,0,VALID,100,VALID,0,VALID,19.2949,VALID,23,VALID,1.43078,
2005-05-25, 03:14:01,VALID,917.358,VALID,0,VALID,100,VALID,0,VALID,19.2986,VALID,10,VALID,1.14395,
2005-05-25, 03:15:01,VALID,917.354,VALID,0,VALID,100,VALID,-0.0169808,VALID,19.2817,VALID,18,VALID,1.04929,
2005-05-25, 03:16:01,VALID,917.33,VALID,0,VALID,100,VALID,0.0169808,VALID,19.2882,VALID,26,VALID,0.544779,
2005-05-25, 03:17:01,VALID,917.316,VALID,0,VALID,100,VALID,-0.0169808,VALID,19.2753,VALID,15,VALID,0.147711,
2005-05-25, 03:18:01,VALID,917.292,VALID,0,VALID,100,VALID,0.0169808,VALID,19.2686,VALID,15,VALID,0.511364,
2005-05-25, 03:19:00,VALID,917.278,VALID,0,VALID,100,VALID,0.0169808,VALID,19.2621,VALID,37,VALID,0.540179,
2005-05-25, 03:20:00,VALID,917.259,VALID,0,VALID,100,VALID,0,VALID,19.2524,VALID,20,VALID,0.554878,
2005-05-25, 03:21:00,VALID,917.248,VALID,0,VALID,100,VALID,0.0169808,VALID,19.2589,VALID,15,VALID,0.440104,
2005-05-25, 03:22:00,VALID,917.253,VALID,0,VALID,100,VALID,0,VALID,19.272,VALID,13,VALID,0.175409,
2005-05-25, 03:23:00,VALID,917.25,VALID,0,VALID,100,VALID,0.0169808,VALID,19.275,VALID,13,VALID,0.137607,
2005-05-25, 03:24:00,VALID,917.256,VALID,0,VALID,100,VALID,0,VALID,19.2884,VALID,20,VALID,0.403161,
2005-05-25, 03:25:00,VALID,917.256,VALID,0,VALID,100,VALID,0,VALID,19.275,VALID,16,VALID,0.40904,
2005-05-25, 03:26:00,VALID,917.266,VALID,0,VALID,100,VALID,0,VALID,19.2785,VALID,15,VALID,0.292492,
2005-05-25, 03:27:00,VALID,917.273,VALID,0,VALID,100,VALID,-0.0169808,VALID,19.2785,VALID,15,VALID,0.280678,
2005-05-25, 03:28:00,VALID,917.276,VALID,0,VALID,100,VALID,0,VALID,19.2783,VALID,16,VALID,0.752418,
2005-05-25, 03:29:00,VALID,917.265,VALID,0,VALID,100,VALID,0,VALID,19.2845,VALID,20,VALID,0.686357,
2005-05-25, 03:30:00,VALID,917.264,VALID,0,VALID,100,VALID,0,VALID,19.2877,VALID,21,VALID,1.02273,
2005-05-25, 03:31:00,VALID,917.272,VALID,0,VALID,100,VALID,0,VALID,19.3083,VALID,10,VALID,0.799479,
2005-05-25, 03:32:00,VALID,917.281,VALID,0,VALID,100,VALID,0,VALID,19.2976,VALID,28,VALID,0.759527,
2005-05-25, 03:33:00,VALID,917.294,VALID,0,VALID,100,VALID,0,VALID,19.2917,VALID,8,VALID,0.906795,
2005-05-25, 03:34:00,VALID,917.307,VALID,0,VALID,100,VALID,-0.0169808,VALID,19.2882,VALID,25,VALID,0.586319,
2005-05-25, 03:35:00,VALID,917.312,VALID,0,VALID,100,VALID,0,VALID,19.2783,VALID,18,VALID,0.902344,
2005-05-25, 03:36:00,VALID,917.311,VALID,0,VALID,100,VALID,0,VALID,19.2884,VALID,25,VALID,1.08861,
2005-05-25, 03:37:00,VALID,917.309,VALID,0,VALID,100,VALID,0,VALID,19.2753,VALID,13,VALID,0.657738,
2005-05-25, 03:38:00,VALID,917.3,VALID,0,VALID,100,VALID,0.0339617,VALID,19.2753,VALID,18,VALID,0.164453,
2005-05-25, 03:39:00,VALID,917.319,VALID,0,VALID,100,VALID,0,VALID,19.2718,VALID,12,VALID,0.354725,
2005-05-25, 03:40:00,VALID,917.317,VALID,0,VALID,100,VALID,0,VALID,19.2626,VALID,25,VALID,0.87872,
2005-05-25, 03:41:00,VALID,917.336,VALID,0,VALID,100,VALID,0,VALID,19.2465,VALID,15,VALID,0.75327,
2005-05-25, 03:42:00,VALID,917.336,VALID,0,VALID,100,VALID,-0.0169808,VALID,19.2559,VALID,18,VALID,0.731898,
2005-05-25, 03:43:00,VALID,917.351,VALID,0,VALID,100,VALID,-0.0169808,VALID,19.2663,VALID,22,VALID,0.719618,
2005-05-25, 03:44:00,VALID,917.37,VALID,0,VALID,100,VALID,-0.0169808,VALID,19.2755,VALID,7,VALID,0.601563,